When you browse on this site, cookies collect data to enhance your experience and personalize the content and advertising you see.
Visit our Privacy Policy to learn more. By continuing to use the site, you agree to this use of cookies and data.
  • In Romania
  • List of Countries
  • For 7 days
  • Water Temperature
  • Weather Map
  • Weather Widgets
  • user-avatar
    Login

    Hourly Weather Oksford

    Today, 16 December, Monday

    Time Temperature Precipitation Wind Pressure Humidity
    00:00 +5°C° 0 mm 4 mps 742 mmHg 91%
    01:00 +5°C° 0 mm 4 mps 742 mmHg 90%
    02:00 +5°C° 0 mm 4 mps 742 mmHg 89%
    03:00 +3°C° 0 mm 5 mps 742 mmHg 88%
    04:00 +4°C° 0 mm 4 mps 743 mmHg 87%
    05:00 +4°C° 0 mm 4 mps 743 mmHg 86%
    06:00 +4°C° 0 mm 4 mps 743 mmHg 88%
    07:00 +4°C° 0 mm 4 mps 743 mmHg 88%
    08:00 +4°C° 0 mm 3 mps 744 mmHg 89%
    09:00 +4°C° 0 mm 3 mps 744 mmHg 89%
    10:00 +4°C° 0 mm 3 mps 744 mmHg 87%
    11:00 +6°C° 0 mm 2 mps 744 mmHg 85%
    12:00 +7°C° 0 mm 2 mps 744 mmHg 82%
    13:00 +7°C° 0 mm 2 mps 744 mmHg 85%
    14:00 +7°C° 0 mm 2 mps 744 mmHg 87%
    15:00 +7°C° 0 mm 2 mps 744 mmHg 89%
    16:00 +6°C° 0.1 mm 2 mps 743 mmHg 90%
    17:00 +6°C° 0.1 mm 2 mps 743 mmHg 92%
    18:00 +6°C° 0.1 mm 2 mps 743 mmHg 93%
    19:00 +6°C° 0.1 mm 2 mps 743 mmHg 93%
    20:00 +6°C° 0.1 mm 2 mps 743 mmHg 94%
    21:00 +6°C° 0.1 mm 2 mps 743 mmHg 95%
    22:00 +7°C° 0.5 mm 1 mps 743 mmHg 95%
    23:00 +7°C° 0.5 mm 1 mps 743 mmHg 95%

    Tomorrow, 17 December, Tuesday

    Time Temperature Precipitation Wind Pressure Humidity
    00:00 +7°C° 0.5 mm 1 mps 743 mmHg 96%
    01:00 +7°C° 0.2 mm 1 mps 743 mmHg 96%
    02:00 +7°C° 0.2 mm 1 mps 743 mmHg 96%
    03:00 +7°C° 0.2 mm 1 mps 742 mmHg 95%
    04:00 +7°C° 0 mm 1 mps 742 mmHg 95%
    05:00 +7°C° 0 mm 1 mps 742 mmHg 95%
    06:00 +7°C° 0 mm 1 mps 742 mmHg 95%
    07:00 +7°C° 0 mm 1 mps 743 mmHg 95%
    08:00 +7°C° 0 mm 1 mps 743 mmHg 94%
    09:00 +7°C° 0 mm 1 mps 743 mmHg 94%
    10:00 +7°C° 0 mm 1 mps 744 mmHg 92%
    11:00 +8°C° 0 mm 1 mps 744 mmHg 90%
    12:00 +8°C° 0 mm 1 mps 744 mmHg 88%
    13:00 +8°C° 0 mm 1 mps 745 mmHg 89%
    14:00 +7°C° 0 mm 1 mps 745 mmHg 90%
    15:00 +7°C° 0 mm 1 mps 746 mmHg 91%
    16:00 +6°C° 0 mm 1 mps 746 mmHg 91%
    17:00 +6°C° 0 mm 1 mps 747 mmHg 92%
    18:00 +5°C° 0 mm 1 mps 747 mmHg 92%
    19:00 +4°C° 0 mm 2 mps 748 mmHg 92%
    20:00 +3°C° 0 mm 2 mps 748 mmHg 93%
    21:00 +3°C° 0 mm 2 mps 749 mmHg 93%
    22:00 +3°C° 0 mm 2 mps 749 mmHg 93%
    23:00 +3°C° 0 mm 2 mps 749 mmHg 93%

    Day after tomorrow, 18 December, Wednesday

    Time Temperature Precipitation Wind Pressure Humidity
    00:00 +3°C° 0 mm 2 mps 750 mmHg 93%
    01:00 +3°C° 0 mm 2 mps 750 mmHg 92%
    02:00 +3°C° 0 mm 2 mps 750 mmHg 92%
    03:00 +3°C° 0 mm 2 mps 750 mmHg 91%
    04:00 +3°C° 0 mm 2 mps 750 mmHg 91%
    05:00 +3°C° 0 mm 2 mps 750 mmHg 92%
    06:00 +2°C° 0 mm 3 mps 750 mmHg 92%
    07:00 +2°C° 0 mm 3 mps 750 mmHg 93%
    08:00 +3°C° 0 mm 3 mps 751 mmHg 93%
    09:00 +3°C° 0 mm 3 mps 751 mmHg 94%
    10:00 +4°C° 0 mm 4 mps 751 mmHg 92%
    11:00 +5°C° 0 mm 5 mps 750 mmHg 89%
    12:00 +7°C° 0 mm 5 mps 750 mmHg 87%
    13:00 +7°C° 0 mm 5 mps 749 mmHg 87%
    14:00 +6°C° 0 mm 5 mps 749 mmHg 88%
    15:00 +6°C° 0 mm 5 mps 748 mmHg 88%
    16:00 +5°C° 0 mm 6 mps 748 mmHg 89%
    17:00 +5°C° 0 mm 6 mps 747 mmHg 90%
    18:00 +5°C° 0 mm 6 mps 747 mmHg 91%
    19:00 +6°C° 0.1 mm 7 mps 746 mmHg 91%
    20:00 +6°C° 0.1 mm 7 mps 746 mmHg 91%
    21:00 +7°C° 0.1 mm 8 mps 745 mmHg 91%
    22:00 +7°C° 1 mm 8 mps 745 mmHg 92%
    23:00 +9°C° 1 mm 8 mps 744 mmHg 92%

    19 December, Thursday

    Time Temperature Precipitation Wind Pressure Humidity
    00:00 +9°C° 1 mm 7 mps 744 mmHg 93%
    01:00 +9°C° 0.6 mm 7 mps 744 mmHg 94%
    02:00 +9°C° 0.6 mm 6 mps 743 mmHg 94%
    03:00 +9°C° 0.6 mm 6 mps 743 mmHg 95%
    04:00 +9°C° 1.2 mm 6 mps 743 mmHg 94%
    05:00 +9°C° 1.2 mm 7 mps 742 mmHg 94%
    06:00 +10°C° 1.2 mm 8 mps 742 mmHg 93%
    07:00 +10°C° 1.5 mm 7 mps 742 mmHg 94%
    08:00 +9°C° 1.5 mm 6 mps 742 mmHg 94%
    09:00 +9°C° 1.5 mm 6 mps 742 mmHg 95%
    10:00 +9°C° 0.8 mm 5 mps 742 mmHg 95%
    11:00 +9°C° 0.8 mm 5 mps 742 mmHg 95%
    12:00 +10°C° 0.8 mm 4 mps 741 mmHg 94%
    13:00 +10°C° 0.1 mm 4 mps 741 mmHg 94%
    14:00 +9°C° 0.1 mm 5 mps 741 mmHg 94%
    15:00 +10°C° 0.1 mm 5 mps 740 mmHg 93%
    16:00 +10°C° 1.4 mm 4 mps 740 mmHg 95%
    17:00 +10°C° 1.4 mm 4 mps 740 mmHg 96%
    18:00 +10°C° 1.4 mm 3 mps 739 mmHg 97%
    19:00 +10°C° 1 mm 2 mps 739 mmHg 97%
    20:00 +9°C° 1 mm 2 mps 738 mmHg 98%
    21:00 +10°C° 1 mm 1 mps 738 mmHg 98%
    22:00 +10°C° 0.4 mm 1 mps 737 mmHg 98%
    23:00 +10°C° 0.4 mm 1 mps 737 mmHg 98%

    20 December, Friday

    Time Temperature Precipitation Wind Pressure Humidity
    00:00 +10°C° 0.4 mm 1 mps 736 mmHg 98%
    01:00 +9°C° 1.7 mm 2 mps 735 mmHg 98%
    02:00 +9°C° 1.7 mm 2 mps 735 mmHg 98%
    03:00 +9°C° 1.7 mm 2 mps 734 mmHg 97%
    04:00 +9°C° 2 mm 2 mps 734 mmHg 96%
    05:00 +8°C° 2 mm 3 mps 734 mmHg 95%
    06:00 +7°C° 2 mm 4 mps 733 mmHg 94%
    07:00 +8°C° 0.8 mm 3 mps 734 mmHg 94%
    08:00 +8°C° 0.8 mm 3 mps 734 mmHg 94%
    09:00 +8°C° 0.8 mm 2 mps 734 mmHg 93%
    10:00 +8°C° 0 mm 2 mps 734 mmHg 91%
    11:00 +9°C° 0 mm 3 mps 734 mmHg 89%
    12:00 +9°C° 0 mm 3 mps 734 mmHg 87%
    13:00 +9°C° 0 mm 2 mps 735 mmHg 89%
    14:00 +9°C° 0 mm 2 mps 735 mmHg 90%
    15:00 +8°C° 0 mm 2 mps 735 mmHg 92%
    16:00 +8°C° 0 mm 2 mps 736 mmHg 93%
    17:00 +7°C° 0 mm 2 mps 736 mmHg 94%
    18:00 +6°C° 0 mm 2 mps 736 mmHg 94%
    19:00 +6°C° 0 mm 2 mps 737 mmHg 94%
    20:00 +6°C° 0 mm 2 mps 737 mmHg 94%
    21:00 +5°C° 0 mm 2 mps 738 mmHg 93%
    22:00 +5°C° 0 mm 2 mps 738 mmHg 93%
    23:00 +5°C° 0 mm 2 mps 739 mmHg 93%

    21 December, Saturday

    Time Temperature Precipitation Wind Pressure Humidity
    00:00 +4°C° 0 mm 2 mps 739 mmHg 92%
    01:00 +4°C° 0 mm 2 mps 740 mmHg 92%
    02:00 +4°C° 0 mm 2 mps 740 mmHg 92%
    03:00 +4°C° 0 mm 2 mps 741 mmHg 92%
    04:00 +4°C° 0 mm 2 mps 741 mmHg 93%
    05:00 +3°C° 0 mm 2 mps 742 mmHg 93%
    06:00 +3°C° 0 mm 2 mps 742 mmHg 94%
    07:00 +2°C° 0 mm 3 mps 742 mmHg 93%
    08:00 +2°C° 0 mm 3 mps 743 mmHg 93%
    09:00 +2°C° 0 mm 3 mps 743 mmHg 93%
    10:00 +4°C° 0 mm 3 mps 743 mmHg 90%
    11:00 +5°C° 0 mm 3 mps 743 mmHg 87%
    12:00 +6°C° 0 mm 4 mps 743 mmHg 84%
    13:00 +6°C° 0 mm 4 mps 742 mmHg 85%
    14:00 +6°C° 0 mm 5 mps 742 mmHg 86%
    15:00 +6°C° 0 mm 5 mps 741 mmHg 87%
    16:00 +5°C° 0.7 mm 6 mps 740 mmHg 89%
    17:00 +5°C° 0.7 mm 7 mps 739 mmHg 90%
    18:00 +5°C° 0.7 mm 8 mps 738 mmHg 91%
    19:00 +5°C° 1.6 mm 7 mps 738 mmHg 91%
    20:00 +7°C° 1.6 mm 6 mps 737 mmHg 90%
    21:00 +7°C° 1.6 mm 5 mps 737 mmHg 90%
    22:00 +6°C° 0 mm 5 mps 737 mmHg 91%
    23:00 +6°C° 0 mm 4 mps 736 mmHg 92%
    Show more